S51UL-6 Weather Reports


Display with metric or nautical units.
time (UTC)temp
F
wind
direction
speed
MPH
gust
MPH
rain 1hr
in
rain 24hr
in
rain mn
in
humidity
%
barometer
mb
20260505213825 53 23 0.0 0.0 0.00 0.00 0.00 74 1010.1
20260505213324 54 23 0.0 0.0 0.00 0.00 0.00 74 1010.3
20260505212824 54 23 0.0 0.0 0.00 0.00 0.00 74 1010.3
20260505212326 54 23 0.0 0.0 0.00 0.00 0.00 73 1010.4
20260505211824 55 23 0.0 0.0 0.00 0.00 0.00 73 1010.5
20260505210826 55 203 0.0 0.0 0.00 0.00 0.00 72 1010.5
20260505210324 55 203 0.0 0.0 0.00 0.00 0.00 72 1010.4
20260505205825 55 203 0.0 0.0 0.00 0.00 0.00 72 1010.6
20260505205325 55 158 0.0 0.0 0.00 0.00 0.00 73 1010.6
20260505204325 55 158 0.0 0.0 0.00 0.00 0.00 70 1010.4
20260505203826 56 158 0.0 0.0 0.00 0.00 0.00 70 1010.7
20260505203325 56 158 0.0 0.0 0.00 0.00 0.00 70 1010.6
20260505202825 56 158 0.0 0.0 0.00 0.00 0.00 70 1010.6
20260505202325 57 158 0.0 0.0 0.00 0.00 0.00 70 1010.5
20260505201825 57 135 1.0 3.0 0.00 0.00 0.00 71 1010.6
20260505201325 57 135 1.0 3.0 0.00 0.00 0.00 70 1010.6
20260505200825 57 180 0.0 2.0 0.00 0.00 0.00 70 1010.4
20260505195913 58 135 0.0 0.0 0.00 0.00 0.00 68 1010.5
20260505195825 58 135 0.0 0.0 0.00 0.00 0.00 68 1010.5
20260505195326 58 135 0.0 0.0 0.00 0.00 0.00 68 1010.5
20260505194826 58 158 0.0 5.0 0.00 0.00 0.00 68 1010.6
20260505194326 58 158 1.0 5.0 0.00 0.00 0.00 68 1010.5
20260505193825 58 158 0.0 0.0 0.00 0.00 0.00 68 1010.7
20260505193326 59 158 0.0 0.0 0.00 0.00 0.00 67 1010.8
20260505192826 59 135 0.0 2.0 0.00 0.00 0.00 67 1010.7
20260505192326 59 135 3.0 6.0 0.00 0.00 0.00 67 1010.8
20260505191826 60 180 5.0 8.0 0.00 0.00 0.00 67 1010.8
20260505191327 59 158 6.0 8.0 0.00 0.00 0.00 67 1010.8
20260505190826 60 158 5.0 8.0 0.00 0.00 0.00 67 1010.7
20260505190326 59 158 3.0 5.0 0.00 0.00 0.00 67 1010.6
20260505185826 59 203 4.0 5.0 0.00 0.00 0.00 66 1010.8
20260505185327 59 135 3.0 5.0 0.00 0.00 0.00 65 1010.8
20260505184826 60 135 3.0 5.0 0.00 0.00 0.00 65 1010.7
20260505184326 60 135 1.0 4.0 0.00 0.00 0.00 64 1010.7
20260505183826 60 158 0.0 0.0 0.00 0.00 0.00 63 1010.8
20260505183326 60 158 2.0 6.0 0.00 0.00 0.00 63 1010.8
20260505182826 60 158 5.0 6.0 0.00 0.00 0.00 63 1010.7
20260505182326 61 180 5.0 7.0 0.00 0.00 0.00 63 1010.4
20260505181826 61 158 4.0 7.0 0.00 0.00 0.00 63 1010.7
20260505180827 61 135 6.0 8.0 0.00 0.00 0.00 62 1010.6
20260505175827 61 158 8.0 13.0 0.00 0.00 0.00 62 1010.8
20260505175327 62 158 7.0 10.0 0.00 0.00 0.00 61 1010.8
20260505174827 62 158 4.0 7.0 0.00 0.00 0.00 61 1010.9
20260505174327 62 180 5.0 7.0 0.00 0.00 0.00 60 1010.9
20260505173827 62 158 5.0 7.0 0.00 0.00 0.00 60 1010.9
20260505173327 62 158 6.0 7.0 0.00 0.00 0.00 59 1010.9
20260505172827 63 158 5.0 6.0 0.00 0.00 0.00 59 1011.0
20260505172327 63 158 6.0 9.0 0.00 0.00 0.00 58 1011.2
20260505171828 64 158 6.0 11.0 0.00 0.00 0.00 58 1010.9
20260505171327 64 158 8.0 13.0 0.00 0.00 0.00 57 1010.9
20260505170827 64 135 9.0 13.0 0.00 0.00 0.00 57 1011.2
20260505170327 64 158 8.0 11.0 0.00 0.00 0.00 57 1011.2
20260505165827 65 158 8.0 10.0 0.00 0.00 0.00 57 1011.2
20260505165327 65 158 6.0 9.0 0.00 0.00 0.00 56 1011.3
20260505164327 65 203 4.0 9.0 0.00 0.00 0.00 55 1011.3
20260505163828 65 158 5.0 11.0 0.00 0.00 0.00 55 1011.3
20260505163328 66 203 6.0 11.0 0.00 0.00 0.00 54 1011.3
20260505162829 66 135 3.0 7.0 0.00 0.00 0.00 54 1011.4
20260505160828 66 203 3.0 5.0 0.00 0.00 0.00 53 1011.6
20260505160328 66 293 3.0 9.0 0.00 0.00 0.00 52 1011.7
20260505153328 68 135 6.0 13.0 0.00 0.00 0.00 51 1011.3
20260505152828 67 135 8.0 13.0 0.00 0.00 0.00 51 1011.5
20260505151828 67 158 4.0 8.0 0.00 0.00 0.00 52 1011.4
20260505151329 67 158 6.0 8.0 0.00 0.00 0.00 52 1011.4
20260505150828 67 180 5.0 8.0 0.00 0.00 0.00 52 1011.3
20260505150328 67 225 2.0 8.0 0.00 0.00 0.00 52 1011.6
20260505140329 68 158 5.0 9.0 0.00 0.00 0.00 49 1011.6
20260505123830 68 180 4.0 4.0 0.00 0.00 0.00 48 1012.3
20260505123330 68 158 4.0 6.0 0.00 0.00 0.00 48 1012.3
20260505122830 68 158 6.0 9.0 0.00 0.00 0.00 47 1012.5
20260505121830 69 158 5.0 6.0 0.00 0.00 0.00 47 1012.4
20260505121331 69 158 8.0 11.0 0.00 0.00 0.00 45 1012.7
20260505120331 70 180 7.0 10.0 0.00 0.00 0.00 44 1012.4
20260505115831 71 113 8.0 13.0 0.00 0.00 0.00 43 1012.4
20260505115331 71 0 7.0 13.0 0.00 0.00 0.00 42 1012.5
20260505114831 73 158 6.0 9.0 0.00 0.00 0.00 41 1012.6
20260505114331 74 158 5.0 9.0 0.00 0.00 0.00 41 1012.3
20260505113831 73 158 9.0 12.0 0.00 0.00 0.00 42 1012.1
20260505113331 73 180 5.0 12.0 0.00 0.00 0.00 41 1012.2
20260505112832 73 180 3.0 7.0 0.00 0.00 0.00 41 1012.3
20260505112331 73 180 6.0 17.0 0.00 0.00 0.00 41 1012.5
20260505111831 73 158 12.0 17.0 0.00 0.00 0.00 40 1012.3
20260505110831 74 158 11.0 18.0 0.00 0.00 0.00 39 1011.9
20260505110331 75 158 8.0 11.0 0.00 0.00 0.00 38 1011.6
20260505101832 76 158 11.0 16.0 0.00 0.00 0.00 39 1011.5
20260505101333 76 158 9.0 16.0 0.00 0.00 0.00 38 1011.3
20260505100832 77 180 6.0 11.0 0.00 0.00 0.00 37 1011.4
20260505100332 77 135 6.0 12.0 0.00 0.00 0.00 38 1011.4
20260505095332 77 158 9.0 15.0 0.00 0.00 0.00 41 1011.2
20260505094332 76 158 9.0 13.0 0.00 0.00 0.00 41 1011.3
20260505093832 76 180 9.0 12.0 0.00 0.00 0.00 41 1011.3
20260505093333 76 158 11.0 12.0 0.00 0.00 0.00 42 1011.4
20260505092833 76 158 11.0 14.0 0.00 0.00 0.00 41 1011.4
20260505092333 76 158 10.0 14.0 0.00 0.00 0.00 43 1011.5
20260505091333 75 135 9.0 16.0 0.00 0.00 0.00 43 1011.5
20260505085333 74 180 9.0 13.0 0.00 0.00 0.00 45 1011.7
20260505084333 73 135 8.0 11.0 0.00 0.00 0.00 45 1011.7
20260505083834 73 158 9.0 11.0 0.00 0.00 0.00 45 1011.7
20260505082833 73 158 12.0 14.0 0.00 0.00 0.00 46 1011.6
20260505082333 73 158 8.0 12.0 0.00 0.00 0.00 46 1011.8
20260505081833 73 158 7.0 10.0 0.00 0.00 0.00 45 1012.0
20260505080833 72 135 7.0 11.0 0.00 0.00 0.00 48 1011.9
20260505080333 71 135 6.0 11.0 0.00 0.00 0.00 48 1011.9
20260505075833 71 135 7.0 9.0 0.00 0.00 0.00 48 1011.8
20260505075334 71 158 8.0 10.0 0.00 0.00 0.00 49 1011.9
20260505074832 71 158 6.0 10.0 0.00 0.00 0.00 50 1012.1
20260505074334 69 158 6.0 8.0 0.00 0.00 0.00 52 1012.1
20260505073833 69 135 6.0 9.0 0.00 0.00 0.00 52 1012.3
20260505073335 68 180 7.0 9.0 0.00 0.00 0.00 52 1012.3
20260505072834 67 135 6.0 9.0 0.00 0.00 0.00 53 1012.3
20260505072334 67 135 4.0 7.0 0.00 0.00 0.00 54 1012.4
20260505071337 66 135 5.0 9.0 0.00 0.00 0.00 54 1012.3
20260505070834 65 135 4.0 9.0 0.00 0.00 0.00 55 1012.2
20260505070335 65 158 3.0 4.0 0.00 0.00 0.00 56 1012.2
20260505064834 64 135 4.0 5.0 0.00 0.00 0.00 57 1012.5
20260505064334 63 158 4.0 6.0 0.00 0.00 0.00 58 1012.4
20260505063834 63 158 5.0 6.0 0.00 0.00 0.00 57 1012.5
20260505063334 62 158 6.0 9.0 0.00 0.00 0.00 58 1012.4
20260505062334 62 158 6.0 7.0 0.00 0.00 0.00 60 1012.5
20260505061835 62 158 6.0 8.0 0.00 0.00 0.00 60 1012.4
20260505061335 61 158 6.0 8.0 0.00 0.00 0.00 62 1012.4
20260505055835 56 158 3.0 4.0 0.00 0.00 0.00 73 1012.5
20260505055335 55 158 3.0 4.0 0.00 0.00 0.00 76 1012.4
20260505054835 53 158 0.0 3.0 0.00 0.00 0.00 79 1012.6
20260505054335 51 158 0.0 0.0 0.00 0.00 0.00 82 1012.5
20260505053335 47 68 0.0 0.0 0.00 0.00 0.00 84 1012.6
20260505052836 46 68 0.0 0.0 0.00 0.00 0.00 84 1012.6
20260505050835 42 45 0.0 0.0 0.00 0.00 0.00 84 1012.6
20260505050335 42 45 0.0 0.0 0.00 0.00 0.00 83 1012.4
20260505040836 38 45 0.0 0.0 0.00 0.00 0.00 82 1012.4
20260505040336 39 45 0.0 0.0 0.00 0.00 0.00 82 1012.5
20260505035836 39 45 0.0 0.0 0.00 0.00 0.00 81 1012.4
20260505035336 39 45 0.0 0.0 0.00 0.00 0.00 81 1012.5
20260505034837 39 45 0.0 0.0 0.00 0.00 0.00 81 1012.5
20260505034336 39 45 0.0 0.0 0.00 0.00 0.00 81 1012.6
20260505033836 39 45 0.0 0.0 0.00 0.00 0.00 81 1012.6
20260505033337 39 45 0.0 0.0 0.00 0.00 0.00 81 1012.5
20260505032837 39 45 0.0 0.0 0.00 0.00 0.00 81 1012.5
20260505030337 40 45 0.0 0.0 0.00 0.00 0.00 80 1012.6
20260505025837 40 45 0.0 0.0 0.00 0.00 0.00 80 1012.5
20260505024838 40 45 0.0 0.0 0.00 0.00 0.00 80 1012.6
20260505024337 40 45 0.0 0.0 0.00 0.00 0.00 80 1012.7
20260505023337 41 45 0.0 0.0 0.00 0.00 0.00 80 1012.6
20260505022842 41 45 0.0 0.0 0.00 0.00 0.00 79 1012.8
20260505022337 41 45 0.0 0.0 0.00 0.00 0.00 79 1012.9
20260505020338 42 45 0.0 0.0 0.00 0.00 0.00 79 1012.8
20260505015837 42 45 0.0 0.0 0.00 0.00 0.00 79 1012.9
20260505015338 42 45 0.0 0.0 0.00 0.00 0.00 79 1012.7
20260505014838 42 45 0.0 0.0 0.00 0.00 0.00 79 1012.9
20260505014338 42 45 0.0 0.0 0.00 0.00 0.00 79 1013.0
20260505013838 42 45 0.0 0.0 0.00 0.00 0.00 79 1013.0
20260505013338 42 45 0.0 0.0 0.00 0.00 0.00 79 1013.1
20260505012338 42 45 0.0 0.0 0.00 0.00 0.00 78 1012.8
20260505010838 42 45 0.0 0.0 0.00 0.00 0.00 77 1012.9
20260505010338 42 45 0.0 0.0 0.00 0.00 0.00 77 1012.9
20260505005838 42 45 0.0 0.0 0.00 0.00 0.00 77 1013.0
20260505004838 42 45 0.0 0.0 0.00 0.00 0.00 77 1013.2
20260505004338 42 45 0.0 0.0 0.00 0.00 0.00 77 1013.3
20260505003339 42 45 0.0 0.0 0.00 0.00 0.00 76 1013.3
20260505002841 42 45 0.0 0.0 0.00 0.00 0.00 76 1013.3
20260505002339 42 45 0.0 0.0 0.00 0.00 0.00 76 1013.3
20260505001839 42 45 0.0 0.0 0.00 0.00 0.00 75 1013.3
20260505001339 43 45 0.0 0.0 0.00 0.00 0.00 75 1013.4
20260505000340 44 45 0.0 0.0 0.00 0.00 0.00 75 1013.3
20260504234339 44 45 0.0 0.0 0.00 0.00 0.00 74 1013.5
20260504233839 44 45 0.0 0.0 0.00 0.00 0.00 74 1013.4
20260504233339 45 45 0.0 0.0 0.00 0.00 0.00 75 1013.4
20260504232839 45 45 0.0 0.0 0.00 0.00 0.00 75 1013.4
20260504231839 45 90 0.0 0.0 0.00 0.00 0.00 73 1013.3
20260504231339 45 90 0.0 0.0 0.00 0.00 0.00 73 1013.5
20260504230840 45 90 0.0 0.0 0.00 0.00 0.00 72 1013.6
20260504230339 46 90 0.0 0.0 0.00 0.00 0.00 71 1013.7
20260504225340 46 90 0.0 0.0 0.00 0.00 0.00 72 1013.6
20260504224840 46 90 0.0 0.0 0.00 0.00 0.00 72 1013.8
20260504223840 47 90 0.0 0.0 0.00 0.00 0.00 72 1013.6
20260504223342 47 113 0.0 0.0 0.00 0.00 0.00 71 1013.7
20260504222840 47 113 0.0 0.0 0.00 0.00 0.00 71 1013.9
20260504222340 47 113 0.0 0.0 0.00 0.00 0.00 70 1013.9
20260504221840 47 113 0.0 0.0 0.00 0.00 0.00 69 1013.7
20260504221340 48 113 0.0 0.0 0.00 0.00 0.00 68 1013.7
20260504220841 48 113 0.0 0.0 0.00 0.00 0.00 67 1014.0
20260504220340 49 113 0.0 0.0 0.00 0.00 0.00 67 1013.8
20260504215340 49 113 0.0 0.0 0.00 0.00 0.00 68 1013.9
20260504214841 50 113 0.0 0.0 0.00 0.00 0.00 67 1014.0
20260504214341 50 113 0.0 0.0 0.00 0.00 0.00 67 1013.8